Flag for Armenia

Past Weather in Kapan, Armenia — Yesterday and Last 2 Weeks

Now
72 °F

Passing clouds.


Feels Like: 76 °F
Forecast: 63 / 43 °F
Wind: 12 mph from Northwest

Location: Tabriz Airport
Current Time: Oct 21, 2020 at 4:48:41 pm
Latest Report: Oct 21, 2020 at 4:00 pm
Visibility: N/A
Pressure30.24 "Hg(27.70 "Hg at 759m altitude)
Humidity: 29%
Dew Point: 37 °F
Location of KapanLocation

Past Weather in Kapan — Graph

°F

Kapan Temperature Yesterday

Maximum temperature yesterday: 79 °F (at 1:30 pm)
Minimum temperature yesterday: 48 °F (at 6:00 am)
Average temperature yesterday: 61 °F

High & Low Weather Summary for the Past Weeks

 TemperatureHumidityPressure
High79 °F (Oct 20, 1:30 pm)87% (Oct 6, 11:30 pm)30.45 "Hg (Oct 6, 11:30 pm)
Low39 °F (Oct 11, 7:30 am)10% (Oct 15, 5:00 pm)30.07 "Hg (Oct 8, 9:30 pm)
Average58 °F42%30.26 "Hg
* Reported Oct 6 3:00 pm — Oct 21 3:30 pm, Kapan. Weather by CustomWeather, © 2020

Note: Actual official high and low records may vary slightly from our data, if they occured in-between our weather recording intervals... More about our weather records

Kapan Weather History for the Previous 24 Hours

Scroll right to see more
 ConditionsComfort  
Time TempWeatherWind HumidityBarometerVisibility
3:30 pm
Wed, Oct 21
73 °FPassing clouds.9 mph27%30.24 "HgN/A
3:00 pm73 °FPassing clouds.9 mph27%30.24 "HgN/A
2:30 pm73 °FPassing clouds.7 mph25%30.24 "HgN/A
2:00 pm72 °FPassing clouds.5 mph27%30.24 "HgN/A
1:30 pm72 °FPassing clouds.5 mph25%30.27 "HgN/A
1:00 pm72 °FPassing clouds.9 mph27%30.27 "HgN/A
12:30 pm70 °FPassing clouds.5 mph29%30.27 "HgN/A
12:00 pm70 °FPassing clouds.5 mph27%30.27 "HgN/A
11:00 am66 °FSunny.2 mph28%30.30 "Hg10 mi
10:00 am61 °FSunny.5 mph34%30.30 "Hg10 mi
9:30 am59 °FSunny.5 mph36%30.27 "Hg10 mi
9:00 am55 °FSunny.5 mph41%30.27 "Hg10 mi
8:30 am54 °FSunny.5 mph44%30.24 "Hg10 mi
8:00 am50 °FSunny.5 mph50%30.24 "Hg10 mi
7:30 am48 °FClear.7 mph50%30.24 "Hg10 mi
7:00 am48 °FClear.12 mph50%30.24 "Hg10 mi
6:30 am50 °FClear.5 mph50%30.24 "Hg10 mi
6:00 am50 °FClear.5 mph47%30.24 "Hg10 mi
5:30 am50 °FClear.5 mph47%30.21 "Hg10 mi
5:00 am50 °FClear.5 mph50%30.21 "Hg10 mi
4:30 am50 °FClear.5 mph47%30.21 "Hg10 mi
3:30 am52 °FClear.7 mph44%30.21 "Hg10 mi
3:00 am52 °FClear.9 mph47%30.21 "Hg10 mi
2:30 am52 °FClear.7 mph44%30.21 "Hg10 mi
2:00 am54 °FClear.5 mph44%30.18 "Hg10 mi
1:30 am54 °FClear.5 mph41%30.21 "Hg10 mi
1:00 am54 °FClear.2 mph41%30.21 "Hg10 mi
12:30 am54 °FClear.2 mph38%30.21 "Hg10 mi
12:00 am55 °FClear.2 mph36%30.21 "Hg10 mi
11:30 pm
Tue, Oct 20
57 °FClear.5 mph36%30.18 "Hg10 mi
11:00 pm57 °FClear.5 mph36%30.21 "Hg10 mi
10:30 pm59 °FClear.5 mph31%30.18 "Hg10 mi
10:00 pm59 °FClear.5 mph31%30.18 "Hg10 mi
9:30 pm61 °FClear.5 mph27%30.18 "Hg10 mi
9:00 pm61 °FClear.9 mph27%30.18 "Hg10 mi
8:30 pm59 °FClear.7 mph31%30.18 "Hg10 mi
8:00 pm59 °FClear.5 mph36%30.18 "Hg10 mi
7:30 pm63 °FClear.2 mph27%30.18 "Hg10 mi
7:00 pm64 °FClear.No wind30%30.18 "Hg10 mi
6:30 pm66 °FSunny.2 mph24%30.18 "Hg10 mi
6:00 pm70 °FSunny.5 mph23%30.18 "Hg10 mi
5:30 pm72 °FPassing clouds.5 mph20%30.18 "HgN/A
5:00 pm73 °FPassing clouds.5 mph19%30.18 "HgN/A
4:30 pm73 °FPassing clouds.7 mph15%30.18 "HgN/A
4:00 pm73 °FPassing clouds.7 mph15%30.18 "HgN/A
Weather by CustomWeather, © 2020

See weather overview